sat.trackr.live / text

‹ back to catalog

STARLINK-32759

NORAD 62751 · 2025-014S

PAYLOAD ACTIVE UNKNOWN

§ Identity

Operator
Country
US
Launch date
2025-01-21
Launch site
AFETR
Launch vehicle
Mass (kg)
RCS (m²)

Purposes: comms

External: N2YO · Heavens-Above · Gunter

§ Orbital elements

Epoch: 2026-05-25T04:29:10.574016Z

Period
94.27 min
Inclination
42.9995°
Eccentricity
0.0001027
Mean motion
15.27602811 rev/d
Perigee alt
482.3 km
Apogee alt
483.7 km
Semi-major
6,861.1 km
B*
8.2777e-4
RAAN
86.0931°
Arg perigee
258.9489°
Mean anomaly
101.1247°
Rev number
7,491

§ Raw data

STARLINK-327591 62751U 25014S   26145.18692794  .00022602  00000+0  82777-3 0  99922 62751  42.9995  86.0931 0001027 258.9489 101.1247 15.27602811 74913

JSON: /api/v1/satellites/62751 · /tle

For live sub-satellite position, see the globe view (requires WebGL).

§ Visibility from observer

Set your observer location to see the next 7 days of passes ≥ 10°. The values pass through the URL so the page stays shareable.

No JS? Fill the form by hand. The geolocation button needs JavaScript.